Tracking 29892 objects as of 21-Nov-2024
HD Live streaming from Space Station
objects crossing your sky now

NOAA 16 DEB

Track NOAA 16 DEB now!
10-day predictions


NORAD ID: 41508
Int'l Code: 2000-055MG
Perigee: 786.9 km
Apogee: 828.2 km
Inclination: 98.8 °
Period: 100.9 minutes
Semi major axis: 7178 km
RCS: Unknown
Launch date: September 21, 2000
Source: United States (US)
Launch site: AIR FORCE WESTERN TEST RANGE (AFWTR)

Note: This is SATELLITE DEBRIS
Your satellite tracking list
Your tracking list is empty




NASA's NSSDC Master Catalog

Two Line Element Set (TLE):
1 41508U 00055MG  24325.24804797  .00007767  00000-0  31690-2 0  9993
2 41508  98.8400  69.5001 0028733 160.1894 200.0409 14.27404034444536
Source of the keplerian elements: AFSPC